Tracking 19846 objects as of 18-Sep-2019
HD Live streaming from Space Station
objects crossing your sky now

FENGYUN 1C DEB

Track FENGYUN 1C DEB now!
10-day predictions


NORAD ID: 35207
Int'l Code: 1999-025DPP
Perigee: 737.3 km
Apogee: 852.1 km
Inclination: 98.9 °
Period: 100.6 minutes
Semi major axis: 7165 km
RCS: 0.0073 m2 (small)
Launch date: May 10, 1999
Source: People's Republic of China (PRC)
Launch site: Taiyaun Space Center, China (TSC)

Note: This is SATELLITE DEBRIS
aabbcc
Your satellite tracking list
Your tracking list is empty




NASA's NSSDC Master Catalog

Two Line Element Set (TLE):
1 35207U 99025DPP 19259.26901803 +.00000581 +00000-0 +22906-3 0  9993
2 35207 098.8635 281.6411 0080161 163.5999 196.7804 14.31249460321565
Source of the keplerian elements: AFSPC